User: anonymous   Login
Location: Unspecified
(0.0000°N, 0.0000°E)
Time: 10:32:20
(UTC+00:00)
Language:

VELOX C1 - Orbit

View from above orbital plane
View from above orbital plane
View from above satellite
View from above satellite

Ground track
Ground track

The orbit data is extracted from the following two-line orbital elements,

1 41166U 15077A   18231.55225210 +.00000964 +00000-0 +18355-4 0  9990
2 41166 014.9831 299.5425 0011349 157.1471 202.9355 15.09599071147785
Epoch (UTC): 19 August 2018 13:15:14
Eccentricity: 0.0011349
inclination: 14.9831°
perigee height: 529 km
apogee height: 545 km
right ascension of ascending node: 299.5425°
argument of perigee: 157.1471°
revolutions per day: 15.09599071
mean anomaly at epoch: 202.9355°
orbit number at epoch: 14778

The dashed part of the orbit path shows where the satellite is in the earth's shadow,  

DLR